Hourly Weather Roundup
Issued by NWS Central Illinois

Home | Current Version | Previous Version | Text Only | Print | Product List | Glossary On
Versions: 1 2 3 4 5 6 7 8 9 10 11 12 13 14 15 16 17 18 19 20 21 22 23 24 25 26 27 28 29 30 31 32 33 34 35 36 37 38 39 40 41 42 43 44 45 46 47 48 49 50
000
NZUS43 KILX 230010
HWRILX

AREA WEATHER ROUNDUP
NATIONAL WEATHER SERVICE, LINCOLN IL
700 PM CDT TUE JUL 22 2014


CITY           SKY/WX    TMP DP  RH WIND       PRES   REMARKS
BLOOMINGTON    MOSUNNY   81  73  76 SW8       30.01F HX  86
CHAMPAIGN      MOSUNNY   81  72  74 S6        30.03F HX  85
6HR MIN TEMP:  81; 6HR MAX TEMP:  87;

DECATUR        SUNNY     84 N/A N/A SW6       30.04
FLORA          SUNNY     84  68  58 W6        30.04R HX  87
6HR MIN TEMP:  84; 6HR MAX TEMP:  87;

GALESBURG      CLOUDY    81  75  83 SW8       30.00R HX  87
JACKSONVILLE   LGT RAIN  84  76  77 SW5       30.02F HX  93
6HR MIN TEMP:  82; 6HR MAX TEMP:  86;

LACON          PTSUNNY   83  73  71 W6        29.98R HX  89
6HR MIN TEMP:  83; 6HR MAX TEMP:  88;

LAWRENCEVILLE  SUNNY     86  70  58 SW8       30.02R HX  90
6HR MIN TEMP:  86; 6HR MAX TEMP:  89;

LITCHFIELD     MOSUNNY   83  71  68 SE7       30.02F HX  87
$$


CITY           SKY/WX    TMP DP  RH WIND       PRES   REMARKS
LINCOLN        PTSUNNY   85  74  69 S5        29.96F HX  92
6HR MIN TEMP:  85; 6HR MAX TEMP:  90;

MACOMB         CLOUDY    81  76  86 SW6       30.02R HX  87
MATTOON        SUNNY     84  68  58 W6        30.04R HX  87
6HR MIN TEMP:  83; 6HR MAX TEMP:  86;

MT CARMEL AP   SUNNY     86  72  62 W5        30.02R HX  92
OLNEY-NOBLE AP SUNNY     82  70  65 CALM      30.03R HX  86
PARIS          SUNNY     83  72  70 SW5       30.05R HX  88
6HR MIN TEMP:  83; 6HR MAX TEMP:  85;

PEORIA         PTSUNNY   84  74  71 SW10      29.98F HX  91
6HR MIN TEMP:  84; 6HR MAX TEMP:  91;

PONTIAC        SUNNY     84  75  74 S9        29.96F HX  92
RANTOUL        SUNNY     82  71  68 S8        30.01F HX  86
6HR MIN TEMP:  82; 6HR MAX TEMP:  87;

ROBINSON       SUNNY     85  74  69 W6        30.04R HX  92
6HR MIN TEMP:  85; 6HR MAX TEMP:  90;

SPRINGFIELD    CLOUDY    84  72  67 S7        30.00F HX  89
6HR MIN TEMP:  84; 6HR MAX TEMP:  88;

TAYLORVILLE    MOSUNNY   81  73  78 SW5       30.03S HX  85
$$

...REGIONAL REPORTS...


CITY           SKY/WX    TMP DP  RH WIND       PRES   REMARKS
CHICAGO O`HARE CLOUDY    87  72  60 SW15      29.94R HX  93
KANKAKEE       SUNNY     84  75  75 S8        29.97F HX  91
MOLINE         CLOUDY    85  77  77 SW7       29.97R HX  95
MOUNT VERNON   SUNNY     84  68  58 SW10      30.04R HX  87
PITTSFIELD     PTSUNNY   84  76  78 E3        30.03R HX  92
QUINCY         CLOUDY    84  78  82 SE3       29.99S HX  95
ROCKFORD       CLOUDY    86  77  74 W6        29.96R HX  97
$$


CITY           SKY/WX    TMP DP  RH WIND       PRES   REMARKS
BURLINGTON     CLOUDY    82  77  84 S6        30.00R HX  90
CEDAR RAPIDS   MOSUNNY   86  72  62 NW15      29.99R HX  92
DES MOINES     PTSUNNY   85  70  60 N10       30.03S HX  89
KIRKSVILLE     PTSUNNY   91  80  70 NW5       30.02R HX 109
OTTUMWA        MOSUNNY   87  78  74 NW9       30.01R HX 100
ST LOUIS       PTSUNNY   91  72  53 S7        30.01S HX  98
$$


CITY           SKY/WX    TMP DP  RH WIND       PRES   REMARKS
TERRE HAUTE    SUNNY     84  69  60 W8        30.04R HX  88
EVANSVILLE     SUNNY     89  67  47 SW7       30.02S HX  92
INDIANAPOLIS   MOSUNNY   83  66  56 SW12      30.02S HX  85
LAFAYETTE      SUNNY     83  70  64 W7        30.03R HX  87
MADISON        MOSUNNY   87  72  60 N14G21    29.95R HX  93
MILWAUKEE      MOSUNNY   87  75  67 SW13      29.91R HX  96
$$




USA.gov is the U.S. government's official web portal to all federal, state and local government web resources and services.